Location: Newark
(48.6461°N, 4.3644°W)
Time: 00:29:36
(UTC+00:00)

Transit 4A - Pass Details

Date: 25 January 2020
Orbit: 872 x 973 km, 66.8° (Epoch: 24 February)

Event Time Altitude Azimuth Distance (km) Brightness Sun altitude
Rises 06:03:04 0° 182° (S) 3,547 11.0 -18.5°
Reaches altitude 10° 06:05:49 10° 173° (S) 2,593 10.4 -18.1°
Maximum altitude 06:11:05 33° 112° (ESE) 1,477 9.7 -17.2°
Drops below altitude 10° 06:16:15 10° 50° (NE) 2,554 10.7 -16.4°
Sets 06:18:57 0° 42° (NE) 3,487 11.3 -15.9°
